Eden Prairie, MN

4:22 PM CDT on August 28, 2016 (GMT -0500)
Flying Cloud

Weather History for KFCM - December, 2015

Change the Weather History Date:

Tuesday, December 8, 2015

  Actual Average Record
Temperature  
Mean Temperature 36 °F -  
Max Temperature 43 °F 33 °F 46 °F (1999)
Min Temperature 30 °F 19 °F -8 °F (2007)
Degree Days  
Heating Degree Days 28    
Moisture  
Dew Point 34 °F    
Average Humidity 90    
Maximum Humidity 97    
Minimum Humidity 76    
Precipitation  
Precipitation 0.04 in - - ()
Sea Level Pressure  
Sea Level Pressure 29.67 in    
Wind  
Wind Speed 5 mph (SSW)    
Max Wind Speed 10 mph    
Max Gust Speed -    
Visibility 6 miles    
Events Fog , Rain    
Averages and records for this station are not official NWS values.
T = Trace of Precipitation, MM = Missing Value Source: NWS Daily Summary

Daily Weather History Graph

Daily Weather History Graph

Search for Another Location

Airport or City:

Trip Planner

Search our weather history database for the weather conditions in past years. The results will help you decide how hot, cold, wet, or windy it might be!

Date:

Astronomy

Dec. 08, 2015 Rise Set
Actual Time 7:38 AM CST 4:32 PM CST
Civil Twilight 7:05 AM CST 5:06 PM CST
Nautical Twilight 6:28 AM CST 5:43 PM CST
Astronomical Twilight 5:52 AM CST 6:18 PM CST
Moon 4:37 AM CST (12/8) 3:12 PM CST (12/8)
Length of Visible Light 10h 01m
Length of Day
8h 54m
Waning Crescent, 7% of the Moon is Illuminated
Dec 8
Waning Crescent
Dec 11
New
Dec 18
First Quarter
Dec 25
Full
Jan 1
Last Quarter

Hourly Weather History & Observations

Time (CST) Temp. Windchill Dew Point Humidity Pressure Visibility Wind Dir Wind Speed Gust Speed Precip Events Conditions
12:53 AM 33.1 °F 28.7 °F 28.9 °F 85% 29.80 in 10.0 mi SSW 4.6 mph - N/A   Clear
1:53 AM 30.9 °F 25.2 °F 28.0 °F 89% 29.79 in 10.0 mi SSE 5.8 mph - N/A   Clear
2:53 AM 30.9 °F 25.2 °F 28.9 °F 92% 29.79 in 10.0 mi South 5.8 mph - N/A   Clear
3:53 AM 30.0 °F 26.5 °F 27.0 °F 88% 29.78 in 10.0 mi SW 3.5 mph - N/A   Clear
4:53 AM 30.9 °F 26.2 °F 28.0 °F 89% 29.75 in 10.0 mi South 4.6 mph - N/A   Clear
5:53 AM 30.9 °F 27.5 °F 28.0 °F 89% 29.73 in 10.0 mi ESE 3.5 mph - N/A   Clear
6:53 AM 32.0 °F 27.5 °F 28.0 °F 85% 29.73 in 10.0 mi SE 4.6 mph - N/A   Clear
7:53 AM 30.9 °F 26.2 °F 28.0 °F 89% 29.72 in 10.0 mi East 4.6 mph - N/A   Clear
8:53 AM 33.1 °F 28.7 °F 30.0 °F 89% 29.72 in 10.0 mi East 4.6 mph - N/A   Clear
9:53 AM 37.0 °F 33.3 °F 32.0 °F 82% 29.72 in 10.0 mi East 4.6 mph - N/A   Mostly Cloudy
10:53 AM 39.0 °F 33.4 °F 33.1 °F 79% 29.71 in 10.0 mi SE 8.1 mph - N/A   Overcast
11:53 AM 41.0 °F 35.2 °F 34.0 °F 76% 29.69 in 10.0 mi SE 9.2 mph - 0.00 in Rain Light Rain
12:53 PM 41.0 °F 35.8 °F 37.0 °F 86% 29.67 in 9.0 mi South 8.1 mph - 0.01 in Rain Light Rain
1:14 PM 42.1 °F 36.1 °F 37.9 °F 85% 29.64 in 4.0 mi SW 10.4 mph - 0.01 in Rain Light Rain
1:53 PM 42.1 °F 36.1 °F 39.0 °F 89% 29.65 in 4.0 mi SW 10.4 mph - 0.03 in Rain Light Rain
2:53 PM 43.0 °F 40.3 °F 39.0 °F 86% 29.64 in 10.0 mi East 4.6 mph - 0.00 in   Overcast
3:53 PM 42.1 °F - 39.9 °F 92% 29.65 in 9.0 mi Calm Calm - 0.00 in Rain Light Rain
4:53 PM 41.0 °F - 39.0 °F 93% 29.65 in 7.0 mi Calm Calm - 0.00 in   Overcast
5:53 PM 41.0 °F 38.0 °F 37.9 °F 89% 29.64 in 10.0 mi East 4.6 mph - N/A   Mostly Cloudy
6:53 PM 39.0 °F - 37.0 °F 93% 29.65 in 7.0 mi Calm Calm - N/A   Clear
7:53 PM 39.0 °F - 37.9 °F 96% 29.65 in 6.0 mi Calm Calm - N/A   Mostly Cloudy
8:37 PM 37.9 °F 34.4 °F 37.0 °F 97% 29.62 in 2.5 mi WNW 4.6 mph - N/A   Mostly Cloudy
8:53 PM 37.9 °F 33.5 °F 36.0 °F 93% 29.65 in 2.5 mi WNW 5.8 mph - N/A   Mostly Cloudy
9:00 PM 37.9 °F 35.5 °F 37.0 °F 97% 29.63 in 2.5 mi WNW 3.5 mph - N/A   Overcast
9:11 PM 37.9 °F - 37.0 °F 97% 29.62 in 0.8 mi Calm Calm - N/A   Overcast
9:24 PM 37.0 °F - 35.1 °F 93% 29.62 in 0.2 mi Calm Calm - N/A Fog Fog
9:42 PM 37.0 °F 33.3 °F 36.0 °F 96% 29.62 in 0.5 mi West 4.6 mph - N/A Fog Fog
9:53 PM 37.0 °F - 36.0 °F 96% 29.64 in 0.5 mi Calm Calm - N/A Fog Fog
10:03 PM 36.0 °F - 35.1 °F 97% 29.61 in 0.2 mi Calm Calm - N/A Fog Fog
10:13 PM 37.0 °F 34.5 °F 36.0 °F 96% 29.61 in 0.5 mi SSW 3.5 mph - N/A Fog Fog
10:18 PM 37.0 °F 33.3 °F 35.1 °F 93% 29.62 in 0.2 mi SW 4.6 mph - N/A Fog Fog
10:41 PM 37.0 °F 33.3 °F 35.1 °F 93% 29.63 in 0.5 mi West 4.6 mph - N/A Fog Fog
10:48 PM 37.4 °F 34.9 °F 35.6 °F 93% 29.63 in 1.0 mi WSW 3.5 mph - N/A   Overcast
10:53 PM 37.0 °F 34.5 °F 35.1 °F 93% 29.65 in 4.0 mi WSW 3.5 mph - N/A   Overcast
11:53 PM 35.1 °F 31.0 °F 33.1 °F 92% 29.67 in 8.0 mi West 4.6 mph - N/A   Mostly Cloudy